Regional Weather Roundup
Issued by NWS

Home | Current Version | Previous Version | Graphics & Text | Print | Product List | Glossary On
Versions: 1 2 3 4 5 6 7 8 9 10 11 12 13 14 15 16 17 18 19 20 21 22 23 24 25 26 27 28 29 30 31 32 33 34 35 36 37 38 39 40 41 42 43 44 45 46 47 48 49 50
000
ASUS43 KTOP 251708
RWRKS

WEATHER ROUNDUP FOR KANSAS
NATIONAL WEATHER SERVICE GOODLAND KS
1200 PM CDT SAT OCT 25 2014

NOTE:  "FAIR" INDICATES FEW OR NO CLOUDS BELOW 12,000 FEET WITH NO
SIGNIFICANT WEATHER AND/OR OBSTRUCTIONS TO VISIBILITY.

KSZ001>006-013>018-027>032-041>047-251800-
NORTHWEST KANSAS

CITY           SKY/WX    TMP DP  RH WIND       PRES   REMARKS
GOODLAND       SUNNY     71  33  24 N6        30.15F
HAYS           SUNNY     72  50  46 E3        30.09S
HILL CITY      SUNNY     70  49  47 NE6       30.10F
RUSSELL        SUNNY     76  56  49 E3        30.06F
$$

KSZ061>065-074>080-084>089-251800-
SOUTHWEST KANSAS

CITY           SKY/WX    TMP DP  RH WIND       PRES   REMARKS
DODGE CITY     SUNNY     80  49  33 VRB3      30.11S
ELKHART          N/A     76  44  32 CALM        N/A
GARDEN CITY    SUNNY     78  43  28 CALM      30.11S
GREAT BEND     SUNNY     73  57  56 CALM      30.08S
LIBERAL        SUNNY     75  46  35 S6        30.13F
PRATT          SUNNY     75  54  46 SE3       30.09F
$$

KSZ066>073-081>083-090>101-251800-
SOUTHEAST KANSAS

CITY           SKY/WX    TMP DP  RH WIND       PRES   REMARKS
CHANUTE        SUNNY     74  65  73 SW5       30.08F
COFFEYVILLE    SUNNY     74  63  68 CALM      30.08F
HUTCHINSON     SUNNY     79  60  52 SE6       30.07F
MEDICINE LODGE   N/A     78  60  53 VRB5      30.07S
NEWTON         SUNNY     79  61  53 S7        30.10S
PARSONS        SUNNY     74  64  71 VRB3      30.09F
WICHITA INTL   SUNNY     77  62  59 E5        30.06F
WICHITA JABRA  SUNNY     79  63  57 SE7       30.07F
WICHITA MCCONL SUNNY     79  64  60 E5        30.07F
WINFIELD       SUNNY     76  63  64 SE3       30.08F
$$

KSZ007>012-019>026-033>040-048>060-102>105-251800-
NORTHEAST KANSAS

CITY           SKY/WX    TMP DP  RH WIND       PRES   REMARKS
CONCORDIA      SUNNY     71  61  70 E8        30.08F
EMPORIA        SUNNY     74  64  71 SE7       30.07F
LAWRENCE       SUNNY     69  62  78 E7        30.09S
MANHATTAN      SUNNY     73  64  73 NE6       30.06F
MARYSVILLE     SUNNY     72  54  53 SE7       30.09S
OLATHE IND     SUNNY     73  63  70 NE5       30.09S
OLATHE EXE     SUNNY     74  63  68 VRB3      30.08S
SALINA         SUNNY     74  63  68 CALM      30.07S
TOPEKA BILLARD SUNNY     73  64  73 E7        30.08F
TOPEKA FORBES  SUNNY     74  63  68 E6        30.08S
$$



USA.gov is the U.S. government's official web portal to all federal, state and local government web resources and services.